owner,sensor,date,latitude,longitude,vertical_datum,mass_concentration_of_oxygen_in_sea_water,qcFlag 
DISL,ioos:station:DISL:CATA:1,2009-05-01T00:00:00Z,30.3085,-88.1395,2.658,8.94,1111122 
DISL,ioos:station:DISL:CATA:1,2009-05-01T00:30:00Z,30.3085,-88.1395,2.623,8.73,1111122 
DISL,ioos:station:DISL:CATA:1,2009-05-01T01:00:00Z,30.3085,-88.1395,2.581,8.58,1111122 
DISL,ioos:station:DISL:CATA:1,2009-05-01T01:30:00Z,30.3085,-88.1395,2.561,8.22,1111122 
DISL,ioos:station:DISL:CATA:1,2009-05-01T02:00:00Z,30.3085,-88.1395,2.523,8.27,1111122 
DISL,ioos:station:DISL:CATA:1,2009-05-01T02:30:00Z,30.3085,-88.1395,2.487,8.23,1111122 
DISL,ioos:station:DISL:CATA:1,2009-05-01T03:00:00Z,30.3085,-88.1395,2.456,8.23,1111122 
DISL,ioos:station:DISL:CATA:1,2009-05-01T03:30:00Z,30.3085,-88.1395,2.432,8.26,1111122 
DISL,ioos:station:DISL:CATA:1,2009-05-01T04:00:00Z,30.3085,-88.1395,2.396,8.36,1111122 
DISL,ioos:station:DISL:CATA:1,2009-05-01T04:30:00Z,30.3085,-88.1395,2.367,8.33,1111122 
DISL,ioos:station:DISL:CATA:1,2009-05-01T05:00:00Z,30.3085,-88.1395,2.361,8.17,1111122 
DISL,ioos:station:DISL:CATA:1,2009-05-01T05:30:00Z,30.3085,-88.1395,2.352,8.12,1111122 
DISL,ioos:station:DISL:CATA:1,2009-05-01T06:00:00Z,30.3085,-88.1395,2.336,8.06,1111122 
DISL,ioos:station:DISL:CATA:1,2009-05-01T06:30:00Z,30.3085,-88.1395,2.342,8.04,1111122 
DISL,ioos:station:DISL:CATA:1,2009-05-01T07:00:00Z,30.3085,-88.1395,2.332,8.03,1111122 
DISL,ioos:station:DISL:CATA:1,2009-05-01T07:30:00Z,30.3085,-88.1395,2.341,8.04,1111122 
DISL,ioos:station:DISL:CATA:1,2009-05-01T08:00:00Z,30.3085,-88.1395,2.331,7.96,1111122 
DISL,ioos:station:DISL:CATA:1,2009-05-01T08:30:00Z,30.3085,-88.1395,2.333,7.91,1111122 
DISL,ioos:station:DISL:CATA:1,2009-05-01T09:00:00Z,30.3085,-88.1395,2.343,7.81,1111122 
DISL,ioos:station:DISL:CATA:1,2009-05-01T09:30:00Z,30.3085,-88.1395,2.352,7.69,1111122 
DISL,ioos:station:DISL:CATA:1,2009-05-01T10:00:00Z,30.3085,-88.1395,2.361,7.74,1111122 
DISL,ioos:station:DISL:CATA:1,2009-05-01T10:30:00Z,30.3085,-88.1395,2.393,7.71,1111122 
DISL,ioos:station:DISL:CATA:1,2009-05-01T11:00:00Z,30.3085,-88.1395,2.406,7.7,1111122 
DISL,ioos:station:DISL:CATA:1,2009-05-01T11:30:00Z,30.3085,-88.1395,2.427,7.74,1111122 
DISL,ioos:station:DISL:CATA:1,2009-05-01T12:00:00Z,30.3085,-88.1395,2.456,7.71,1111122 
DISL,ioos:station:DISL:CATA:1,2009-05-01T12:30:00Z,30.3085,-88.1395,2.488,7.74,1111122 
DISL,ioos:station:DISL:CATA:1,2009-05-01T13:00:00Z,30.3085,-88.1395,2.506,7.74,1111122 
DISL,ioos:station:DISL:CATA:1,2009-05-01T13:30:00Z,30.3085,-88.1395,2.536,7.79,1111122 
DISL,ioos:station:DISL:CATA:1,2009-05-01T14:00:00Z,30.3085,-88.1395,2.551,7.75,1111122 
DISL,ioos:station:DISL:CATA:1,2009-05-01T14:30:00Z,30.3085,-88.1395,2.565,7.77,1111122 
DISL,ioos:station:DISL:CATA:1,2009-05-01T15:00:00Z,30.3085,-88.1395,2.592,7.82,1111122 
DISL,ioos:station:DISL:CATA:1,2009-05-01T15:30:00Z,30.3085,-88.1395,2.604,7.87,1111122 
DISL,ioos:station:DISL:CATA:1,2009-05-01T16:00:00Z,30.3085,-88.1395,2.637,8.08,1111122 
DISL,ioos:station:DISL:CATA:1,2009-05-01T16:30:00Z,30.3085,-88.1395,2.644,8.17,1111122 
DISL,ioos:station:DISL:CATA:1,2009-05-01T17:00:00Z,30.3085,-88.1395,2.667,8.26,1111122 
DISL,ioos:station:DISL:CATA:1,2009-05-01T17:30:00Z,30.3085,-88.1395,2.696,8.21,1111122 
DISL,ioos:station:DISL:CATA:1,2009-05-01T18:00:00Z,30.3085,-88.1395,2.697,8.15,1111122 
DISL,ioos:station:DISL:CATA:1,2009-05-01T18:30:00Z,30.3085,-88.1395,2.713,8.16,1111122 
DISL,ioos:station:DISL:CATA:1,2009-05-01T19:00:00Z,30.3085,-88.1395,2.746,8.29,1111122 
DISL,ioos:station:DISL:CATA:1,2009-05-01T19:30:00Z,30.3085,-88.1395,2.737,8.41,1111122 
DISL,ioos:station:DISL:CATA:1,2009-05-01T20:00:00Z,30.3085,-88.1395,2.736,8.54,1111122 
DISL,ioos:station:DISL:CATA:1,2009-05-01T20:30:00Z,30.3085,-88.1395,2.737,8.33,1111122 
DISL,ioos:station:DISL:CATA:1,2009-05-01T21:00:00Z,30.3085,-88.1395,2.73,8.32,1111122 
DISL,ioos:station:DISL:CATA:1,2009-05-01T21:30:00Z,30.3085,-88.1395,2.724,8.32,1111122 
DISL,ioos:station:DISL:CATA:1,2009-05-01T22:00:00Z,30.3085,-88.1395,2.724,8.24,1111122 
DISL,ioos:station:DISL:CATA:1,2009-05-01T22:30:00Z,30.3085,-88.1395,2.715,8.12,1111122 
DISL,ioos:station:DISL:CATA:1,2009-05-01T23:00:00Z,30.3085,-88.1395,2.709,7.9,1111122 
DISL,ioos:station:DISL:CATA:1,2009-05-01T23:30:00Z,30.3085,-88.1395,2.695,6.09,1111122 
DISL,ioos:station:DISL:CATA:1,2009-05-02T00:00:00Z,30.3085,-88.1395,2.664,6.0,1111122 
DISL,ioos:station:DISL:CATA:1,2009-05-02T00:30:00Z,30.3085,-88.1395,2.641,6.22,1111122 
DISL,ioos:station:DISL:CATA:1,2009-05-02T01:00:00Z,30.3085,-88.1395,2.62,6.38,1111122 
DISL,ioos:station:DISL:CATA:1,2009-05-02T01:30:00Z,30.3085,-88.1395,2.601,7.2,1111122 
DISL,ioos:station:DISL:CATA:1,2009-05-02T02:00:00Z,30.3085,-88.1395,2.573,6.9,1111122 
DISL,ioos:station:DISL:CATA:1,2009-05-02T02:30:00Z,30.3085,-88.1395,2.542,6.63,1111122 
DISL,ioos:station:DISL:CATA:1,2009-05-02T03:00:00Z,30.3085,-88.1395,2.518,6.33,1111122 
DISL,ioos:station:DISL:CATA:1,2009-05-02T03:30:00Z,30.3085,-88.1395,2.48,6.64,1111122 
DISL,ioos:station:DISL:CATA:1,2009-05-02T04:00:00Z,30.3085,-88.1395,2.458,6.81,1111122 
DISL,ioos:station:DISL:CATA:1,2009-05-02T04:30:00Z,30.3085,-88.1395,2.436,6.85,1111122 
DISL,ioos:station:DISL:CATA:1,2009-05-02T05:00:00Z,30.3085,-88.1395,2.418,6.93,1111122 
DISL,ioos:station:DISL:CATA:1,2009-05-02T05:30:00Z,30.3085,-88.1395,2.398,7.02,1111122 
DISL,ioos:station:DISL:CATA:1,2009-05-02T06:00:00Z,30.3085,-88.1395,2.38,7.02,1111122 
DISL,ioos:station:DISL:CATA:1,2009-05-02T06:30:00Z,30.3085,-88.1395,2.358,7.02,1111122 
DISL,ioos:station:DISL:CATA:1,2009-05-02T07:00:00Z,30.3085,-88.1395,2.347,6.86,1111122 
DISL,ioos:station:DISL:CATA:1,2009-05-02T07:30:00Z,30.3085,-88.1395,2.33,7.07,1111122 
DISL,ioos:station:DISL:CATA:1,2009-05-02T08:00:00Z,30.3085,-88.1395,2.31,7.09,1111122 
DISL,ioos:station:DISL:CATA:1,2009-05-02T08:30:00Z,30.3085,-88.1395,2.315,7.13,1111122 
DISL,ioos:station:DISL:CATA:1,2009-05-02T09:00:00Z,30.3085,-88.1395,2.324,6.89,1111122 
DISL,ioos:station:DISL:CATA:1,2009-05-02T09:30:00Z,30.3085,-88.1395,2.339,6.89,1111122 
DISL,ioos:station:DISL:CATA:1,2009-05-02T10:00:00Z,30.3085,-88.1395,2.344,7.01,1111122 
DISL,ioos:station:DISL:CATA:1,2009-05-02T10:30:00Z,30.3085,-88.1395,2.359,7.18,1111122 
DISL,ioos:station:DISL:CATA:1,2009-05-02T11:00:00Z,30.3085,-88.1395,2.372,6.97,1111122 
DISL,ioos:station:DISL:CATA:1,2009-05-02T11:30:00Z,30.3085,-88.1395,2.392,7.15,1111122 
DISL,ioos:station:DISL:CATA:1,2009-05-02T12:00:00Z,30.3085,-88.1395,2.404,7.07,1111122 
DISL,ioos:station:DISL:CATA:1,2009-05-02T12:30:00Z,30.3085,-88.1395,2.423,7.1,1111122 
DISL,ioos:station:DISL:CATA:1,2009-05-02T13:00:00Z,30.3085,-88.1395,2.448,7.11,1111122 
DISL,ioos:station:DISL:CATA:1,2009-05-02T13:30:00Z,30.3085,-88.1395,2.469,7.1,1111122 
DISL,ioos:station:DISL:CATA:1,2009-05-02T14:00:00Z,30.3085,-88.1395,2.49,6.98,1111122 
DISL,ioos:station:DISL:CATA:1,2009-05-02T14:30:00Z,30.3085,-88.1395,2.51,7.23,1111122 
DISL,ioos:station:DISL:CATA:1,2009-05-02T15:00:00Z,30.3085,-88.1395,2.526,7.45,1111122 
DISL,ioos:station:DISL:CATA:1,2009-05-02T15:30:00Z,30.3085,-88.1395,2.543,7.59,1111122 
DISL,ioos:station:DISL:CATA:1,2009-05-02T16:00:00Z,30.3085,-88.1395,2.557,7.65,1111122 
DISL,ioos:station:DISL:CATA:1,2009-05-02T16:30:00Z,30.3085,-88.1395,2.57,7.79,1111122 
DISL,ioos:station:DISL:CATA:1,2009-05-02T17:00:00Z,30.3085,-88.1395,2.575,7.79,1111122 
DISL,ioos:station:DISL:CATA:1,2009-05-02T17:30:00Z,30.3085,-88.1395,2.586,7.76,1111122 
DISL,ioos:station:DISL:CATA:1,2009-05-02T18:00:00Z,30.3085,-88.1395,2.595,7.6,1111122 
DISL,ioos:station:DISL:CATA:1,2009-05-02T18:30:00Z,30.3085,-88.1395,2.603,7.54,1111122 
DISL,ioos:station:DISL:CATA:1,2009-05-02T19:00:00Z,30.3085,-88.1395,2.618,7.68,1111122 
DISL,ioos:station:DISL:CATA:1,2009-05-02T19:30:00Z,30.3085,-88.1395,2.627,7.81,1111122 
DISL,ioos:station:DISL:CATA:1,2009-05-02T20:00:00Z,30.3085,-88.1395,2.64,8.02,1111122 
DISL,ioos:station:DISL:CATA:1,2009-05-02T20:30:00Z,30.3085,-88.1395,2.631,7.96,1111122 
DISL,ioos:station:DISL:CATA:1,2009-05-02T21:00:00Z,30.3085,-88.1395,2.641,7.88,1111122 
DISL,ioos:station:DISL:CATA:1,2009-05-02T21:30:00Z,30.3085,-88.1395,2.648,7.83,1111122 
DISL,ioos:station:DISL:CATA:1,2009-05-02T22:00:00Z,30.3085,-88.1395,2.637,7.8,1111122 
DISL,ioos:station:DISL:CATA:1,2009-05-02T22:30:00Z,30.3085,-88.1395,2.642,7.9,1111122 
DISL,ioos:station:DISL:CATA:1,2009-05-02T23:00:00Z,30.3085,-88.1395,2.642,7.92,1111122 
DISL,ioos:station:DISL:CATA:1,2009-05-02T23:30:00Z,30.3085,-88.1395,2.635,7.8,1111122 
DISL,ioos:station:DISL:CATA:1,2009-05-03T00:00:00Z,30.3085,-88.1395,2.635,7.49,1111122 
DISL,ioos:station:DISL:CATA:1,2009-05-03T00:30:00Z,30.3085,-88.1395,2.625,7.32,1111122 
DISL,ioos:station:DISL:CATA:1,2009-05-03T01:00:00Z,30.3085,-88.1395,2.626,7.1,1111122 
DISL,ioos:station:DISL:CATA:1,2009-05-03T01:30:00Z,30.3085,-88.1395,2.609,7.05,1111122 
DISL,ioos:station:DISL:CATA:1,2009-05-03T02:00:00Z,30.3085,-88.1395,2.607,7.15,1111122 
DISL,ioos:station:DISL:CATA:1,2009-05-03T02:30:00Z,30.3085,-88.1395,2.606,7.24,1111122 
DISL,ioos:station:DISL:CATA:1,2009-05-03T03:00:00Z,30.3085,-88.1395,2.583,7.01,1111122 
DISL,ioos:station:DISL:CATA:1,2009-05-03T03:30:00Z,30.3085,-88.1395,2.563,7.15,1111122 
DISL,ioos:station:DISL:CATA:1,2009-05-03T04:00:00Z,30.3085,-88.1395,2.545,6.91,1111122 
DISL,ioos:station:DISL:CATA:1,2009-05-03T04:30:00Z,30.3085,-88.1395,2.53,6.58,1111122 
DISL,ioos:station:DISL:CATA:1,2009-05-03T05:00:00Z,30.3085,-88.1395,2.526,6.31,1111122 
DISL,ioos:station:DISL:CATA:1,2009-05-03T05:30:00Z,30.3085,-88.1395,2.51,6.31,1111122 
DISL,ioos:station:DISL:CATA:1,2009-05-03T06:00:00Z,30.3085,-88.1395,2.502,6.38,1111122 
DISL,ioos:station:DISL:CATA:1,2009-05-03T06:30:00Z,30.3085,-88.1395,2.493,6.54,1111122 
DISL,ioos:station:DISL:CATA:1,2009-05-03T07:00:00Z,30.3085,-88.1395,2.473,6.34,1111122 
DISL,ioos:station:DISL:CATA:1,2009-05-03T07:30:00Z,30.3085,-88.1395,2.468,6.3,1111122 
DISL,ioos:station:DISL:CATA:1,2009-05-03T08:00:00Z,30.3085,-88.1395,2.467,6.42,1111122 
DISL,ioos:station:DISL:CATA:1,2009-05-03T08:30:00Z,30.3085,-88.1395,2.47,6.63,1111122 
DISL,ioos:station:DISL:CATA:1,2009-05-03T09:00:00Z,30.3085,-88.1395,2.459,6.51,1111122 
DISL,ioos:station:DISL:CATA:1,2009-05-03T09:30:00Z,30.3085,-88.1395,2.45,6.76,1111122 
DISL,ioos:station:DISL:CATA:1,2009-05-03T10:00:00Z,30.3085,-88.1395,2.45,6.94,1111122 
DISL,ioos:station:DISL:CATA:1,2009-05-03T10:30:00Z,30.3085,-88.1395,2.45,6.92,1111122 
DISL,ioos:station:DISL:CATA:1,2009-05-03T11:00:00Z,30.3085,-88.1395,2.461,6.94,1111122 
DISL,ioos:station:DISL:CATA:1,2009-05-03T11:30:00Z,30.3085,-88.1395,2.479,6.85,1111122 
DISL,ioos:station:DISL:CATA:1,2009-05-03T12:00:00Z,30.3085,-88.1395,2.492,6.89,1111122 
DISL,ioos:station:DISL:CATA:1,2009-05-03T12:30:00Z,30.3085,-88.1395,2.522,6.98,1111122 
DISL,ioos:station:DISL:CATA:1,2009-05-03T13:00:00Z,30.3085,-88.1395,2.552,7.08,1111122 
DISL,ioos:station:DISL:CATA:1,2009-05-03T13:30:00Z,30.3085,-88.1395,2.574,7.01,1111122 
DISL,ioos:station:DISL:CATA:1,2009-05-03T14:00:00Z,30.3085,-88.1395,2.589,7.07,1111122 
DISL,ioos:station:DISL:CATA:1,2009-05-03T14:30:00Z,30.3085,-88.1395,2.604,7.06,1111122 
DISL,ioos:station:DISL:CATA:1,2009-05-03T15:00:00Z,30.3085,-88.1395,2.607,7.04,1111122 
DISL,ioos:station:DISL:CATA:1,2009-05-03T15:30:00Z,30.3085,-88.1395,2.629,7.04,1111122 
DISL,ioos:station:DISL:CATA:1,2009-05-03T16:00:00Z,30.3085,-88.1395,2.611,7.01,1111122 
DISL,ioos:station:DISL:CATA:1,2009-05-03T16:30:00Z,30.3085,-88.1395,2.608,7.0,1111122 
DISL,ioos:station:DISL:CATA:1,2009-05-03T17:00:00Z,30.3085,-88.1395,2.616,6.9,1111122 
DISL,ioos:station:DISL:CATA:1,2009-05-03T17:30:00Z,30.3085,-88.1395,2.603,6.95,1111122 
DISL,ioos:station:DISL:CATA:1,2009-05-03T18:00:00Z,30.3085,-88.1395,2.608,7.1,1111122 
DISL,ioos:station:DISL:CATA:1,2009-05-03T18:30:00Z,30.3085,-88.1395,2.628,6.98,1111122 
DISL,ioos:station:DISL:CATA:1,2009-05-03T19:00:00Z,30.3085,-88.1395,2.613,7.08,1111122 
DISL,ioos:station:DISL:CATA:1,2009-05-03T19:30:00Z,30.3085,-88.1395,2.607,6.92,1111122 
DISL,ioos:station:DISL:CATA:1,2009-05-03T20:00:00Z,30.3085,-88.1395,2.591,7.03,1111122 
DISL,ioos:station:DISL:CATA:1,2009-05-03T20:30:00Z,30.3085,-88.1395,2.569,7.0,1111122 
DISL,ioos:station:DISL:CATA:1,2009-05-03T21:00:00Z,30.3085,-88.1395,2.581,6.99,1111122 
DISL,ioos:station:DISL:CATA:1,2009-05-03T21:30:00Z,30.3085,-88.1395,2.583,6.96,1111122 
DISL,ioos:station:DISL:CATA:1,2009-05-03T22:00:00Z,30.3085,-88.1395,2.558,6.8,1111122 
DISL,ioos:station:DISL:CATA:1,2009-05-03T22:30:00Z,30.3085,-88.1395,2.568,6.79,1111122 
DISL,ioos:station:DISL:CATA:1,2009-05-03T23:00:00Z,30.3085,-88.1395,2.531,6.59,1111122 
DISL,ioos:station:DISL:CATA:1,2009-05-03T23:30:00Z,30.3085,-88.1395,2.491,6.65,1111122 
DISL,ioos:station:DISL:CATA:1,2009-05-04T00:00:00Z,30.3085,-88.1395,2.466,7.16,1111122 
DISL,ioos:station:DISL:CATA:1,2009-05-04T00:30:00Z,30.3085,-88.1395,2.492,7.32,1111122 
DISL,ioos:station:DISL:CATA:1,2009-05-04T01:00:00Z,30.3085,-88.1395,2.445,7.39,1111122 
DISL,ioos:station:DISL:CATA:1,2009-05-04T01:30:00Z,30.3085,-88.1395,2.422,7.35,1111122 
DISL,ioos:station:DISL:CATA:1,2009-05-04T02:00:00Z,30.3085,-88.1395,2.411,7.32,1111122 
DISL,ioos:station:DISL:CATA:1,2009-05-04T02:30:00Z,30.3085,-88.1395,2.414,7.46,1111122 
DISL,ioos:station:DISL:CATA:1,2009-05-04T03:00:00Z,30.3085,-88.1395,2.468,7.53,1111122 
DISL,ioos:station:DISL:CATA:1,2009-05-04T03:30:00Z,30.3085,-88.1395,2.501,7.45,1111122 
DISL,ioos:station:DISL:CATA:1,2009-05-04T04:00:00Z,30.3085,-88.1395,2.506,7.5,1111122 
DISL,ioos:station:DISL:CATA:1,2009-05-04T04:30:00Z,30.3085,-88.1395,2.503,7.45,1111122 
DISL,ioos:station:DISL:CATA:1,2009-05-04T05:00:00Z,30.3085,-88.1395,2.508,7.37,1111122 
DISL,ioos:station:DISL:CATA:1,2009-05-04T05:30:00Z,30.3085,-88.1395,2.515,7.14,1111122 
DISL,ioos:station:DISL:CATA:1,2009-05-04T06:00:00Z,30.3085,-88.1395,2.549,7.04,1111122 
DISL,ioos:station:DISL:CATA:1,2009-05-04T06:30:00Z,30.3085,-88.1395,2.565,7.11,1111122 
DISL,ioos:station:DISL:CATA:1,2009-05-04T07:00:00Z,30.3085,-88.1395,2.543,6.93,1111122 
DISL,ioos:station:DISL:CATA:1,2009-05-04T07:30:00Z,30.3085,-88.1395,2.538,6.82,1111122 
DISL,ioos:station:DISL:CATA:1,2009-05-04T08:00:00Z,30.3085,-88.1395,2.529,6.89,1111122 
DISL,ioos:station:DISL:CATA:1,2009-05-04T08:30:00Z,30.3085,-88.1395,2.532,6.89,1111122 
DISL,ioos:station:DISL:CATA:1,2009-05-04T09:00:00Z,30.3085,-88.1395,2.56,6.89,1111122 
DISL,ioos:station:DISL:CATA:1,2009-05-04T09:30:00Z,30.3085,-88.1395,2.565,6.85,1111122 
DISL,ioos:station:DISL:CATA:1,2009-05-04T10:00:00Z,30.3085,-88.1395,2.576,6.85,1111122 
DISL,ioos:station:DISL:CATA:1,2009-05-04T10:30:00Z,30.3085,-88.1395,2.561,6.81,1111122 
DISL,ioos:station:DISL:CATA:1,2009-05-04T11:00:00Z,30.3085,-88.1395,2.573,6.8,1111122 
DISL,ioos:station:DISL:CATA:1,2009-05-04T11:30:00Z,30.3085,-88.1395,2.565,6.81,1111122 
DISL,ioos:station:DISL:CATA:1,2009-05-04T12:00:00Z,30.3085,-88.1395,2.567,6.83,1111122 
DISL,ioos:station:DISL:CATA:1,2009-05-04T12:30:00Z,30.3085,-88.1395,2.567,6.86,1111122 
DISL,ioos:station:DISL:CATA:1,2009-05-04T13:00:00Z,30.3085,-88.1395,2.571,6.89,1111122 
DISL,ioos:station:DISL:CATA:1,2009-05-04T13:30:00Z,30.3085,-88.1395,2.603,6.88,1111122 
DISL,ioos:station:DISL:CATA:1,2009-05-04T14:00:00Z,30.3085,-88.1395,2.609,6.89,1111122 
DISL,ioos:station:DISL:CATA:1,2009-05-04T14:30:00Z,30.3085,-88.1395,2.61,6.92,1111122 
DISL,ioos:station:DISL:CATA:1,2009-05-04T15:00:00Z,30.3085,-88.1395,2.608,6.94,1111122 
DISL,ioos:station:DISL:CATA:1,2009-05-04T15:30:00Z,30.3085,-88.1395,2.614,6.93,1111122 
DISL,ioos:station:DISL:CATA:1,2009-05-04T16:00:00Z,30.3085,-88.1395,2.612,6.91,1111122 
DISL,ioos:station:DISL:CATA:1,2009-05-04T16:30:00Z,30.3085,-88.1395,2.595,6.93,1111122 
DISL,ioos:station:DISL:CATA:1,2009-05-04T17:00:00Z,30.3085,-88.1395,2.603,6.92,1111122 
DISL,ioos:station:DISL:CATA:1,2009-05-04T17:30:00Z,30.3085,-88.1395,2.641,6.94,1111122 
DISL,ioos:station:DISL:CATA:1,2009-05-04T18:00:00Z,30.3085,-88.1395,2.65,6.88,1111122 
DISL,ioos:station:DISL:CATA:1,2009-05-04T18:30:00Z,30.3085,-88.1395,2.599,6.93,1111122 
DISL,ioos:station:DISL:CATA:1,2009-05-04T19:00:00Z,30.3085,-88.1395,2.547,6.81,1111122 
DISL,ioos:station:DISL:CATA:1,2009-05-04T19:30:00Z,30.3085,-88.1395,2.548,6.74,1111122 
DISL,ioos:station:DISL:CATA:1,2009-05-04T20:00:00Z,30.3085,-88.1395,2.535,6.83,1111122 
DISL,ioos:station:DISL:CATA:1,2009-05-04T20:30:00Z,30.3085,-88.1395,2.548,7.01,1111122 
DISL,ioos:station:DISL:CATA:1,2009-05-04T21:00:00Z,30.3085,-88.1395,2.503,7.02,1111122 
DISL,ioos:station:DISL:CATA:1,2009-05-04T21:30:00Z,30.3085,-88.1395,2.457,7.2,1111122 
DISL,ioos:station:DISL:CATA:1,2009-05-04T22:00:00Z,30.3085,-88.1395,2.425,7.24,1111122 
DISL,ioos:station:DISL:CATA:1,2009-05-04T22:30:00Z,30.3085,-88.1395,2.404,7.27,1111122 
DISL,ioos:station:DISL:CATA:1,2009-05-04T23:00:00Z,30.3085,-88.1395,2.388,7.21,1111122 
DISL,ioos:station:DISL:CATA:1,2009-05-04T23:30:00Z,30.3085,-88.1395,2.401,7.07,1111122 
DISL,ioos:station:DISL:CATA:1,2009-05-05T00:00:00Z,30.3085,-88.1395,2.413,7.2,1111122 
DISL,ioos:station:DISL:CATA:1,2009-05-05T00:30:00Z,30.3085,-88.1395,2.4,6.74,1111122 
DISL,ioos:station:DISL:CATA:1,2009-05-05T01:00:00Z,30.3085,-88.1395,2.418,6.26,1111122 
DISL,ioos:station:DISL:CATA:1,2009-05-05T01:30:00Z,30.3085,-88.1395,2.448,6.46,1111122 
DISL,ioos:station:DISL:CATA:1,2009-05-05T02:00:00Z,30.3085,-88.1395,2.46,6.23,1111122 
DISL,ioos:station:DISL:CATA:1,2009-05-05T02:30:00Z,30.3085,-88.1395,2.461,6.95,1111122 
DISL,ioos:station:DISL:CATA:1,2009-05-05T03:00:00Z,30.3085,-88.1395,2.468,7.03,1111122 
DISL,ioos:station:DISL:CATA:1,2009-05-05T03:30:00Z,30.3085,-88.1395,2.481,7.0,1111122 
DISL,ioos:station:DISL:CATA:1,2009-05-05T04:00:00Z,30.3085,-88.1395,2.474,7.05,1111122 
DISL,ioos:station:DISL:CATA:1,2009-05-05T04:30:00Z,30.3085,-88.1395,2.492,7.09,1111122 
DISL,ioos:station:DISL:CATA:1,2009-05-05T05:00:00Z,30.3085,-88.1395,2.495,7.04,1111122 
DISL,ioos:station:DISL:CATA:1,2009-05-05T05:30:00Z,30.3085,-88.1395,2.489,7.03,1111122 
DISL,ioos:station:DISL:CATA:1,2009-05-05T06:00:00Z,30.3085,-88.1395,2.502,6.95,1111122 
DISL,ioos:station:DISL:CATA:1,2009-05-05T06:30:00Z,30.3085,-88.1395,2.511,6.89,1111122 
DISL,ioos:station:DISL:CATA:1,2009-05-05T07:00:00Z,30.3085,-88.1395,2.507,6.9,1111122 
DISL,ioos:station:DISL:CATA:1,2009-05-05T07:30:00Z,30.3085,-88.1395,2.51,6.88,1111122 
DISL,ioos:station:DISL:CATA:1,2009-05-05T08:00:00Z,30.3085,-88.1395,2.531,6.88,1111122 
DISL,ioos:station:DISL:CATA:1,2009-05-05T08:30:00Z,30.3085,-88.1395,2.521,6.92,1111122 
DISL,ioos:station:DISL:CATA:1,2009-05-05T09:00:00Z,30.3085,-88.1395,2.541,6.92,1111122 
DISL,ioos:station:DISL:CATA:1,2009-05-05T09:30:00Z,30.3085,-88.1395,2.554,6.93,1111122 
DISL,ioos:station:DISL:CATA:1,2009-05-05T10:00:00Z,30.3085,-88.1395,2.557,6.92,1111122 
DISL,ioos:station:DISL:CATA:1,2009-05-05T10:30:00Z,30.3085,-88.1395,2.579,6.92,1111122 
DISL,ioos:station:DISL:CATA:1,2009-05-05T11:00:00Z,30.3085,-88.1395,2.598,6.92,1111122 
DISL,ioos:station:DISL:CATA:1,2009-05-05T11:30:00Z,30.3085,-88.1395,2.601,6.89,1111122 
DISL,ioos:station:DISL:CATA:1,2009-05-05T12:00:00Z,30.3085,-88.1395,2.62,6.85,1111122 
DISL,ioos:station:DISL:CATA:1,2009-05-05T12:30:00Z,30.3085,-88.1395,2.613,6.84,1111122 
DISL,ioos:station:DISL:CATA:1,2009-05-05T13:00:00Z,30.3085,-88.1395,2.609,6.81,1111122 
DISL,ioos:station:DISL:CATA:1,2009-05-05T13:30:00Z,30.3085,-88.1395,2.617,6.85,1111122 
DISL,ioos:station:DISL:CATA:1,2009-05-05T14:00:00Z,30.3085,-88.1395,2.627,6.87,1111122 
DISL,ioos:station:DISL:CATA:1,2009-05-05T14:30:00Z,30.3085,-88.1395,2.614,6.91,1111122 
DISL,ioos:station:DISL:CATA:1,2009-05-05T15:00:00Z,30.3085,-88.1395,2.603,6.97,1111122 
DISL,ioos:station:DISL:CATA:1,2009-05-05T15:30:00Z,30.3085,-88.1395,2.61,7.07,1111122 
DISL,ioos:station:DISL:CATA:1,2009-05-05T16:00:00Z,30.3085,-88.1395,2.596,7.09,1111122 
DISL,ioos:station:DISL:CATA:1,2009-05-05T16:30:00Z,30.3085,-88.1395,2.582,7.3,1111122 
DISL,ioos:station:DISL:CATA:1,2009-05-05T17:00:00Z,30.3085,-88.1395,2.558,7.44,1111122 
DISL,ioos:station:DISL:CATA:1,2009-05-05T17:30:00Z,30.3085,-88.1395,2.527,7.6,1111122 
DISL,ioos:station:DISL:CATA:1,2009-05-05T18:00:00Z,30.3085,-88.1395,2.496,7.73,1111122 
DISL,ioos:station:DISL:CATA:1,2009-05-05T18:30:00Z,30.3085,-88.1395,2.482,7.67,1111122 
DISL,ioos:station:DISL:CATA:1,2009-05-05T19:00:00Z,30.3085,-88.1395,2.452,5.37,1111122 
DISL,ioos:station:DISL:CATA:1,2009-05-05T19:30:00Z,30.3085,-88.1395,2.417,5.26,1111122 
DISL,ioos:station:DISL:CATA:1,2009-05-05T20:00:00Z,30.3085,-88.1395,2.41,5.39,1111122 
DISL,ioos:station:DISL:CATA:1,2009-05-05T20:30:00Z,30.3085,-88.1395,2.392,5.03,1111122 
DISL,ioos:station:DISL:CATA:1,2009-05-05T21:00:00Z,30.3085,-88.1395,2.39,4.96,1111122 
DISL,ioos:station:DISL:CATA:1,2009-05-05T21:30:00Z,30.3085,-88.1395,2.392,5.04,1111122 
DISL,ioos:station:DISL:CATA:1,2009-05-05T22:00:00Z,30.3085,-88.1395,2.384,4.94,1111122 
DISL,ioos:station:DISL:CATA:1,2009-05-05T22:30:00Z,30.3085,-88.1395,2.388,4.81,1111122 
DISL,ioos:station:DISL:CATA:1,2009-05-05T23:00:00Z,30.3085,-88.1395,2.364,5.03,1111122 
DISL,ioos:station:DISL:CATA:1,2009-05-05T23:30:00Z,30.3085,-88.1395,2.361,5.27,1111122 
DISL,ioos:station:DISL:CATA:1,2009-05-06T00:00:00Z,30.3085,-88.1395,2.371,4.71,1111122 
DISL,ioos:station:DISL:CATA:1,2009-05-06T00:30:00Z,30.3085,-88.1395,2.38,4.59,1111122 
DISL,ioos:station:DISL:CATA:1,2009-05-06T01:00:00Z,30.3085,-88.1395,2.367,4.6,1111122 
DISL,ioos:station:DISL:CATA:1,2009-05-06T01:30:00Z,30.3085,-88.1395,2.354,4.78,1111122 
DISL,ioos:station:DISL:CATA:1,2009-05-06T02:00:00Z,30.3085,-88.1395,2.356,4.81,1111122 
DISL,ioos:station:DISL:CATA:1,2009-05-06T02:30:00Z,30.3085,-88.1395,2.38,4.88,1111122 
DISL,ioos:station:DISL:CATA:1,2009-05-06T03:00:00Z,30.3085,-88.1395,2.408,4.97,1111122 
DISL,ioos:station:DISL:CATA:1,2009-05-06T03:30:00Z,30.3085,-88.1395,2.412,4.97,1111122 
DISL,ioos:station:DISL:CATA:1,2009-05-06T04:00:00Z,30.3085,-88.1395,2.425,7.41,1111122 
DISL,ioos:station:DISL:CATA:1,2009-05-06T04:30:00Z,30.3085,-88.1395,2.428,7.64,1111122 
DISL,ioos:station:DISL:CATA:1,2009-05-06T05:00:00Z,30.3085,-88.1395,2.439,7.53,1111122 
DISL,ioos:station:DISL:CATA:1,2009-05-06T05:30:00Z,30.3085,-88.1395,2.44,7.59,1111122 
DISL,ioos:station:DISL:CATA:1,2009-05-06T06:00:00Z,30.3085,-88.1395,2.451,7.6,1111122 
DISL,ioos:station:DISL:CATA:1,2009-05-06T06:30:00Z,30.3085,-88.1395,2.466,7.57,1111122 
DISL,ioos:station:DISL:CATA:1,2009-05-06T07:00:00Z,30.3085,-88.1395,2.487,7.38,1111122 
DISL,ioos:station:DISL:CATA:1,2009-05-06T07:30:00Z,30.3085,-88.1395,2.493,7.23,1111122 
DISL,ioos:station:DISL:CATA:1,2009-05-06T08:00:00Z,30.3085,-88.1395,2.512,7.18,1111122 
DISL,ioos:station:DISL:CATA:1,2009-05-06T08:30:00Z,30.3085,-88.1395,2.535,7.34,1111122 
DISL,ioos:station:DISL:CATA:1,2009-05-06T09:00:00Z,30.3085,-88.1395,2.553,7.38,1111122 
DISL,ioos:station:DISL:CATA:1,2009-05-06T09:30:00Z,30.3085,-88.1395,2.582,7.31,1111122 
DISL,ioos:station:DISL:CATA:1,2009-05-06T10:00:00Z,30.3085,-88.1395,2.602,7.25,1111122 
DISL,ioos:station:DISL:CATA:1,2009-05-06T10:30:00Z,30.3085,-88.1395,2.62,7.31,1111122 
DISL,ioos:station:DISL:CATA:1,2009-05-06T11:00:00Z,30.3085,-88.1395,2.647,7.32,1111122 
DISL,ioos:station:DISL:CATA:1,2009-05-06T11:30:00Z,30.3085,-88.1395,2.656,7.26,1111122 
DISL,ioos:station:DISL:CATA:1,2009-05-06T12:00:00Z,30.3085,-88.1395,2.667,7.24,1111122 
DISL,ioos:station:DISL:CATA:1,2009-05-06T12:30:00Z,30.3085,-88.1395,2.686,7.26,1111122 
DISL,ioos:station:DISL:CATA:1,2009-05-06T13:00:00Z,30.3085,-88.1395,2.688,7.25,1111122 
DISL,ioos:station:DISL:CATA:1,2009-05-06T13:30:00Z,30.3085,-88.1395,2.673,7.18,1111122 
DISL,ioos:station:DISL:CATA:1,2009-05-06T14:00:00Z,30.3085,-88.1395,2.669,7.26,1111122 
DISL,ioos:station:DISL:CATA:1,2009-05-06T14:30:00Z,30.3085,-88.1395,2.659,7.22,1111122 
DISL,ioos:station:DISL:CATA:1,2009-05-06T15:00:00Z,30.3085,-88.1395,2.658,7.08,1111122 
DISL,ioos:station:DISL:CATA:1,2009-05-06T15:30:00Z,30.3085,-88.1395,2.632,7.17,1111122 